PA3DZX-13 Weather Reports


time (UTC)temp
F
wind
direction
speed
knots
gust
knots
rain 1hr
in
rain 24hr
in
rain mn
in
humidity
%
barometer
mb
20260904224018 59 235 7.0 11.3 0.00 0.00 0.00 80 1014.5
20260904222519 59 230 5.2 9.6 0.00 0.00 0.00 80 1014.4
20260904221018 59 233 5.2 9.6 0.00 0.00 0.00 80 1014.3
20260904215517 59 235 5.2 9.6 0.00 0.00 0.00 82 1014.2
20260904214016 59 239 7.0 9.6 0.00 0.00 0.00 83 1014.2
20260904212516 59 236 7.0 9.6 0.00 0.00 0.00 82 1014.2
20260904211015 59 244 5.2 9.6 0.00 0.00 0.00 83 1014.0
20260904205515 59 248 5.2 9.6 0.00 0.00 0.00 82 1014.0
20260904204014 60 258 5.2 11.3 0.00 0.00 0.00 80 1013.9
20260904202515 60 257 5.2 11.3 0.00 0.00 0.00 80 1013.8
20260904201014 60 258 5.2 9.6 0.00 0.00 0.00 81 1013.7
20260904195514 60 259 5.2 9.6 0.00 0.00 0.00 81 1013.5
20260904194012 60 272 5.2 11.3 0.00 0.00 0.00 81 1013.3
20260904192512 60 277 5.2 11.3 0.00 0.00 0.00 80 1013.1
20260904191012 60 280 7.0 20.9 0.00 0.00 0.00 79 1012.9
20260904185513 60 280 11.3 20.9 0.00 0.00 0.00 78 1012.8
20260904184011 62 268 11.3 19.1 0.00 0.00 0.00 76 1012.3
20260904182512 62 261 9.6 14.8 0.00 0.00 0.00 77 1012.1
20260904181010 62 265 7.0 14.8 0.00 0.00 0.00 79 1011.9
20260904175510 62 268 9.6 13.0 0.00 0.00 0.00 78 1012.0
20260904174010 62 264 9.6 17.4 0.00 0.00 0.00 81 1011.5
20260904172510 64 262 9.6 17.4 0.00 0.00 0.00 79 1011.3
20260904171009 64 263 11.3 19.1 0.00 0.00 0.00 80 1011.2
20260904165510 64 267 9.6 17.4 0.00 0.00 0.00 82 1011.4
20260904164009 64 260 9.6 19.1 0.00 0.00 0.00 84 1011.0
20260904162510 64 267 9.6 19.1 0.00 0.00 0.00 83 1010.8
20260904161009 64 265 7.0 19.1 0.00 0.00 0.00 85 1011.0
20260904155509 64 265 11.3 19.1 0.00 0.00 0.00 85 1011.0
20260904154008 64 262 13.0 19.1 0.00 0.00 0.00 86 1010.8
20260904152508 64 262 13.0 22.6 0.00 0.00 0.00 88 1010.7
20260904151008 62 258 13.0 19.1 0.03 0.00 0.00 91 1010.4
20260904145508 62 255 11.3 17.4 0.01 0.00 0.00 92 1010.2
20260904144007 62 246 13.0 19.1 0.00 0.00 0.00 93 1010.0
20260904142507 62 246 11.3 17.4 0.08 0.00 0.00 94 1009.6
20260904141007 62 247 13.0 17.4 0.20 0.00 0.00 93 1009.8
20260904135506 62 243 11.3 17.4 0.14 0.00 0.00 93 1010.0
20260904134005 62 245 9.6 17.4 0.07 0.00 0.00 93 1009.7
20260904132505 62 245 9.6 17.4 0.08 0.00 0.00 93 1009.6
20260904131004 62 261 7.0 13.0 0.16 0.00 0.00 94 1009.8
20260904125505 62 266 7.0 13.0 0.08 0.00 0.00 93 1009.7
20260904124003 62 267 7.0 13.0 0.03 0.00 0.00 92 1009.7
20260904122503 64 275 7.0 13.0 0.01 0.00 0.00 90 1009.5
20260904121002 64 277 7.0 17.4 0.04 0.00 0.00 90 1009.3
20260904115502 64 275 9.6 17.4 0.09 0.00 0.00 88 1009.5
20260904114001 66 274 13.0 25.2 0.29 0.00 0.00 91 1009.1
20260904112502 68 240 14.8 28.7 0.05 0.00 0.00 87 1008.8
20260904111000 69 232 19.1 28.7 0.00 0.00 0.00 80 1008.6
20260904105501 69 224 17.4 26.9 0.00 0.00 0.00 80 1008.6
20260904104000 69 227 13.0 20.9 0.00 0.00 0.00 85 1008.8
20260904102500 68 225 13.0 20.9 0.00 0.00 0.00 88 1008.8
20260904100959 66 230 13.0 20.9 0.02 0.00 0.00 91 1009.1
20260904095459 66 228 13.0 20.9 0.03 0.00 0.00 90 1009.2
20260904093958 66 228 13.0 20.9 0.03 0.00 0.00 90 1009.2
20260904092459 68 227 11.3 19.1 0.01 0.00 0.00 86 1009.0
20260904090958 68 236 14.8 22.6 0.00 0.00 0.00 83 1009.2
20260904085458 68 225 14.8 25.2 0.00 0.00 0.00 80 1009.0
20260904083957 68 222 14.8 25.2 0.00 0.00 0.00 81 1009.0
20260904082457 69 225 14.8 25.2 0.00 0.00 0.00 76 1009.4
20260904080957 69 227 14.8 22.6 0.00 0.00 0.00 76 1009.2
20260904075456 69 226 13.0 22.6 0.00 0.00 0.00 76 1009.4
20260904073955 68 216 13.0 20.9 0.00 0.00 0.00 77 1009.6
20260904072455 68 219 13.0 20.9 0.00 0.00 0.00 77 1009.6
20260904070955 68 228 14.8 22.6 0.00 0.00 0.00 77 1010.0
20260904065455 68 226 13.0 22.6 0.00 0.00 0.00 78 1010.2
20260904063954 68 222 11.3 17.4 0.00 0.00 0.00 79 1010.2
20260904062453 68 226 13.0 20.9 0.00 0.00 0.00 77 1010.2
20260904060953 68 222 13.0 20.9 0.00 0.00 0.00 78 1010.4
20260904055453 68 225 14.8 20.9 0.00 0.00 0.00 79 1010.5
20260904053952 68 224 13.0 22.6 0.00 0.00 0.00 80 1010.7
20260904052452 68 222 13.0 22.6 0.00 0.00 0.00 80 1010.9
20260904050952 68 225 11.3 19.1 0.00 0.00 0.00 82 1011.0
20260904045452 66 220 11.3 19.1 0.00 0.00 0.00 84 1011.2
20260904043951 66 220 11.3 19.1 0.00 0.00 0.00 84 1011.2
20260904042452 68 220 9.6 14.8 0.00 0.00 0.00 84 1011.6
20260904040951 68 221 9.6 14.8 0.00 0.00 0.00 84 1011.6
20260904035451 68 221 9.6 14.8 0.00 0.00 0.00 84 1011.8
20260904033950 68 219 9.6 14.8 0.00 0.00 0.00 85 1012.0
20260904032450 66 221 9.6 14.8 0.00 0.00 0.00 85 1012.2
20260904030949 68 219 9.6 13.0 0.00 0.00 0.00 85 1012.2
20260904025449 66 220 7.0 13.0 0.00 0.00 0.00 86 1012.6
20260904023949 66 215 9.6 14.8 0.00 0.00 0.00 88 1012.8
20260904022449 66 212 9.6 14.8 0.00 0.00 0.00 88 1012.8
20260904020948 66 211 9.6 13.0 0.00 0.00 0.00 88 1013.0
20260904015448 66 212 7.0 14.8 0.00 0.00 0.00 88 1013.2
20260904013948 66 215 9.6 14.8 0.00 0.00 0.00 87 1013.4
20260904012449 66 215 7.0 13.0 0.00 0.00 0.00 88 1013.6
20260904010948 66 217 7.0 11.3 0.00 0.00 0.00 89 1013.8
20260904005448 66 218 7.0 14.8 0.00 0.00 0.00 89 1013.8
20260904003948 64 219 7.0 14.8 0.00 0.00 0.00 89 1013.9
20260904002447 64 212 7.0 9.6 0.00 0.00 0.00 89 1014.1
20260904000946 64 211 7.0 9.6 0.00 0.00 0.00 88 1014.4
20260903235447 64 211 5.2 9.6 0.00 0.00 0.00 88 1014.7
20260903233945 64 211 5.2 9.6 0.00 0.00 0.00 86 1014.9
20260903232445 64 209 5.2 9.6 0.00 0.00 0.00 85 1014.9
20260903230945 64 206 5.2 9.6 0.00 0.00 0.00 84 1015.0
20260903225445 64 205 5.2 9.6 0.00 0.00 0.00 85 1015.2